Theta_e
308 310 314 317 320 322 324 325 325 325 326 326 324 321 321 322 321 322 323 323 322 321 321 321 320 320 321 321 321 322 322 323 323 323 323 324 323 323 323 323 323 323 323 325 324 322 323 322 322 321 320 320 319 318 319 318 318 317 315 313 314 312 311 310 310 312 311 310 307 306 309 310 310 310 307 304 303 301 301 302 300 301 301 302 301
306 307 311 314 318 321 323 324 322 323 324 325 325 323 321 321 321 322 323 322 323 322 322 322 322 322 321 322 322 322 322 321 322 323 323 323 323 323 323 324 324 324 322 324 324 325 323 322 322 322 321 320 320 320 319 316 317 316 315 311 311 314 314 312 312 313 308 306 305 305 307 308 307 308 304 302 300 301 301 301 301 300 300 300 299
304 307 309 313 316 319 321 323 323 324 324 324 325 325 323 321 321 321 322 322 323 323 322 322 323 323 322 322 323 322 323 324 324 324 323 323 323 323 323 324 325 324 324 323 324 324 324 323 323 323 322 320 319 318 318 317 317 316 315 316 311 311 312 311 313 315 309 301 301 306 305 305 307 307 306 303 301 300 299 300 300 299 299 299 299
302 305 307 310 314 317 320 321 323 323 323 324 324 325 325 322 322 321 321 322 323 323 321 323 323 323 323 322 322 323 321 322 323 322 323 322 322 323 323 323 325 325 325 324 324 325 324 324 324 323 322 321 320 319 318 318 317 316 316 316 316 315 313 314 313 314 306 308 304 304 304 306 303 306 302 302 298 297 296 297 298 299 298 296 298
302 303 306 308 311 314 318 321 322 322 323 324 324 325 325 324 323 322 322 322 322 322 322 322 321 321 321 317 316 319 315 316 319 320 321 321 321 322 322 322 324 325 325 324 323 323 324 324 323 323 323 322 321 320 319 319 318 318 318 317 316 317 312 310 313 312 310 314 307 300 300 302 304 304 300 300 296 295 295 294 297 298 297 297 297
303 303 305 307 309 313 316 319 321 322 323 324 325 325 326 325 324 323 322 322 322 322 322 322 320 320 319 319 317 317 318 317 317 319 319 319 320 321 321 322 323 324 325 324 323 322 323 323 323 323 323 322 321 322 321 320 319 318 318 319 317 316 317 312 313 310 312 312 308 307 308 304 302 303 302 297 297 295 292 293 295 297 297 297 296
301 301 302 305 307 310 314 317 320 321 323 325 325 325 326 326 325 323 322 322 322 321 322 321 321 320 320 320 319 318 318 319 320 320 320 321 321 320 321 321 322 323 324 324 323 322 323 323 323 323 323 323 321 322 321 321 320 319 318 318 319 316 315 315 314 315 311 311 310 305 303 298 304 305 301 294 293 294 294 292 293 294 295 296 296
304 303 302 303 306 309 311 315 319 321 323 324 324 325 325 325 325 324 323 321 322 322 321 321 320 320 319 319 319 319 319 319 319 320 320 320 320 320 321 322 322 322 323 323 323 323 322 323 324 323 323 323 321 322 322 322 321 320 318 319 319 318 317 317 315 315 314 313 308 308 303 300 302 302 300 301 296 292 289 293 292 292 293 295 295
304 303 302 302 304 307 310 313 318 321 322 323 324 325 325 326 325 325 325 323 322 322 320 320 320 320 319 319 318 318 319 319 317 317 318 318 319 320 320 322 323 323 323 323 323 324 321 323 324 324 324 323 320 322 322 322 321 320 318 318 318 317 318 318 316 315 315 315 307 305 302 302 301 301 298 295 291 290 289 290 290 291 291 291 292
303 304 304 303 303 305 308 312 314 318 321 322 323 324 324 325 324 324 325 325 324 323 321 320 320 319 319 319 318 318 317 317 316 317 317 318 318 319 320 321 323 324 324 324 324 324 324 323 324 324 324 324 320 322 322 322 322 321 320 320 319 318 318 317 317 316 316 315 313 310 306 299 300 300 299 297 293 294 291 290 290 290 290 291 291
302 303 304 304 304 304 305 308 312 316 319 321 321 322 323 324 324 323 325 326 325 325 323 321 320 320 319 319 318 318 317 316 316 316 318 317 318 319 320 321 322 324 325 325 325 325 325 323 324 325 325 323 321 322 323 323 322 322 322 320 319 319 318 317 315 316 315 313 312 310 310 308 306 303 301 299 296 291 291 289 288 290 290 290 290
302 302 303 303 303 302 301 305 309 313 316 318 320 321 321 322 323 323 324 325 325 325 325 323 322 321 320 320 319 319 318 318 317 317 318 318 319 319 320 321 322 324 325 325 326 326 325 325 323 324 324 325 323 323 323 323 323 322 322 321 320 320 319 316 317 315 313 313 312 311 311 310 308 307 306 304 299 297 295 290 289 288 288 288 290
300 301 302 302 303 303 302 304 306 309 314 317 319 320 321 321 322 322 322 323 325 325 324 324 324 323 322 321 321 321 320 319 319 319 319 320 320 320 320 320 322 322 324 324 325 326 326 325 325 324 324 324 324 323 323 322 322 322 321 320 320 320 320 318 317 316 315 314 313 310 311 310 309 307 306 305 302 298 296 291 288 289 285 287 288
300 301 301 302 303 303 303 304 305 308 312 316 318 318 320 320 321 321 322 323 324 324 324 324 324 325 324 323 323 322 322 322 321 321 321 321 322 322 321 322 321 322 323 324 326 326 326 326 325 325 325 325 323 324 323 322 322 321 321 320 320 321 319 318 318 316 315 314 314 311 309 309 309 306 304 304 301 295 293 293 289 286 285 286 287
297 299 301 302 302 302 303 303 303 305 309 313 316 318 319 319 320 320 320 321 322 323 323 323 324 324 325 325 324 324 323 323 323 323 323 322 323 323 323 323 323 323 324 325 323 325 325 326 326 326 326 325 324 323 322 322 321 321 320 321 320 320 319 318 318 318 315 313 311 311 309 308 308 305 302 302 302 298 297 294 290 287 284 285 286
295 296 298 299 300 300 301 301 302 302 305 310 313 316 317 319 319 320 320 321 321 321 322 323 323 324 324 324 324 324 322 323 323 322 323 324 323 323 323 324 324 324 324 324 324 324 325 325 325 325 327 327 326 325 324 323 322 321 321 320 320 320 318 317 318 317 317 315 313 311 308 308 307 304 301 301 300 298 295 294 293 291 287 284 284
296 295 296 298 296 296 299 300 301 300 300 305 310 314 316 317 318 318 319 320 320 320 321 322 323 322 322 323 323 323 323 322 323 323 323 323 323 323 323 324 324 324 324 322 323 323 324 325 325 326 326 327 326 325 324 324 322 321 321 320 320 320 319 318 318 317 317 315 313 310 309 309 306 301 299 299 297 294 292 293 294 292 290 287 284
295 294 294 295 295 296 297 298 300 301 301 302 305 310 314 316 317 318 318 318 319 320 320 321 321 321 322 322 323 323 323 323 323 323 323 322 322 322 322 322 322 323 322 321 321 322 323 318 325 326 326 326 326 325 324 324 323 322 322 322 322 320 319 319 318 317 316 313 311 308 306 305 302 297 297 297 295 293 291 291 291 290 289 289 287
293 294 294 294 294 295 296 297 297 296 297 298 300 304 309 311 314 317 317 318 319 320 320 320 322 322 322 322 322 323 323 324 323 323 322 321 321 322 321 322 321 320 318 320 320 320 321 321 323 324 325 325 325 325 323 323 322 321 321 320 320 320 319 318 317 316 315 310 307 306 302 301 296 296 294 292 291 291 290 289 288 288 287 287 288
294 294 294 295 295 294 295 295 295 295 296 296 296 297 303 308 309 312 314 315 315 316 317 318 319 321 322 322 321 322 323 323 323 322 322 321 321 321 321 320 321 318 319 320 320 320 319 320 320 321 322 323 324 324 323 322 321 321 320 319 318 318 317 316 314 312 311 308 306 304 300 300 294 293 292 291 290 289 289 289 288 287 286 286 287
293 293 294 295 295 294 293 292 292 291 291 292 293 295 297 299 305 307 310 311 312 314 315 317 318 318 318 319 320 320 320 321 321 321 321 321 321 318 320 321 317 318 319 318 319 319 319 319 319 319 321 322 322 323 321 320 319 318 317 316 315 314 314 312 308 305 303 304 304 304 300 298 293 293 292 290 289 288 287 287 287 286 286 284 286
292 293 294 294 294 293 291 291 291 293 294 295 294 294 294 294 295 297 301 306 307 307 308 309 308 309 312 315 315 311 316 316 317 318 318 320 320 320 319 315 316 318 316 318 318 319 318 319 319 320 321 321 321 322 320 318 317 317 315 314 310 310 311 308 305 303 300 300 300 299 295 292 292 293 290 290 289 287 287 286 285 286 285 285 283
294 293 293 293 293 293 293 292 293 293 293 292 291 293 294 293 294 294 294 296 297 300 300 301 304 305 306 306 307 309 311 311 314 316 316 317 317 314 312 314 314 314 313 316 317 317 317 317 318 319 320 319 320 319 318 316 316 315 314 312 311 310 308 304 303 302 300 299 298 297 295 292 291 291 290 289 288 287 286 286 285 284 285 284 283
291 290 289 290 289 289 290 291 293 292 291 291 291 291 291 291 291 291 293 293 293 294 295 298 300 302 303 303 305 305 305 307 309 311 312 311 311 310 310 312 313 312 312 312 314 316 315 316 318 318 318 318 317 316 315 314 315 312 308 307 305 307 308 306 305 303 301 298 298 295 293 291 290 290 289 288 287 286 285 285 284 283 284 284 283
291 291 291 290 289 290 293 293 293 293 291 290 291 292 292 293 292 294 294 292 292 290 292 293 294 298 297 299 301 301 304 305 307 307 308 308 308 309 308 310 310 310 311 310 310 311 314 316 317 318 317 317 316 315 314 311 311 311 311 309 307 306 306 306 306 305 298 299 298 298 294 291 290 290 288 288 287 286 285 284 284 283 283 284 284
291 290 290 292 292 290 290 290 292 292 293 293 292 292 292 293 294 292 294 291 291 289 291 292 292 296 298 298 299 297 300 302 302 301 302 301 301 301 304 304 306 311 308 308 310 311 313 315 316 317 316 315 313 311 311 310 309 308 307 308 308 307 307 306 305 303 300 299 299 298 294 292 291 292 289 288 287 285 284 284 283 283 283 283 283
292 292 291 289 289 292 292 292 292 291 290 291 291 293 291 291 291 290 289 289 289 290 291 292 294 296 298 298 298 298 298 298 297 297 295 295 297 297 299 302 300 305 307 308 308 311 311 314 315 315 313 312 311 310 311 311 310 309 308 307 305 304 305 304 302 300 297 296 296 295 292 291 290 290 289 287 286 285 285 284 284 283 283 283 282
289 289 290 292 293 293 291 292 290 291 290 290 290 291 292 292 293 291 289 289 290 290 292 294 295 296 296 297 296 297 297 298 298 298 297 296 296 297 297 299 299 305 307 308 309 310 310 310 311 310 310 307 308 308 309 309 308 307 305 303 303 301 298 295 293 292 292 292 292 291 290 290 291 290 289 288 286 285 285 284 284 283 283 282 282
290 291 291 292 292 293 293 292 291 288 289 289 289 289 288 289 289 290 289 291 288 291 293 295 295 296 296 295 294 294 295 296 296 298 299 298 298 296 295 297 297 300 303 304 306 309 308 306 303 304 307 307 306 303 302 302 302 302 302 301 298 295 294 293 291 290 290 290 290 289 289 289 289 287 287 287 287 287 285 283 283 283 283 282 282
292 293 293 293 293 293 293 292 288 290 290 290 290 291 291 292 292 290 290 292 288 292 295 296 296 296 295 294 294 293 294 294 295 297 296 295 295 294 294 295 296 295 296 297 299 300 301 301 303 301 302 303 304 305 298 299 300 303 301 299 296 293 293 292 290 288 288 288 288 288 288 286 286 285 286 287 288 287 287 286 284 284 283 283 282
292 293 293 293 292 292 292 291 291 291 291 292 293 293 291 291 292 292 293 293 291 293 294 295 297 295 294 294 294 292 291 293 293 293 293 293 293 292 292 293 293 293 294 294 294 297 297 298 299 298 296 299 301 301 297 299 299 299 299 296 295 293 292 291 291 290 289 288 287 286 286 286 285 285 285 287 288 288 287 287 287 286 286 284 283
293 294 295 292 291 292 293 293 293 292 292 292 292 291 290 292 292 293 293 291 292 293 295 295 296 295 294 294 292 292 291 290 290 291 291 291 291 291 291 292 291 292 292 292 293 295 295 294 295 294 296 296 296 295 297 297 297 297 295 294 293 292 291 291 291 291 290 287 286 285 285 285 285 284 284 285 286 287 287 287 287 287 287 287 287
296 297 297 295 293 293 294 295 294 294 293 293 293 291 292 293 293 293 292 293 294 295 296 296 295 294 293 292 292 292 292 290 289 289 288 289 290 290 290 291 291 290 289 291 292 292 292 292 292 294 294 293 293 294 296 295 296 296 295 293 292 291 290 289 289 288 287 287 286 285 285 284 284 284 284 285 285 285 286 287 287 286 287 287 287
297 298 297 295 294 293 294 295 296 295 295 295 292 294 295 293 292 291 293 295 296 296 296 295 293 293 293 292 291 291 291 291 289 288 288 288 289 290 289 288 288 288 289 290 290 290 290 290 291 292 291 291 291 292 294 294 294 295 294 293 290 289 289 288 288 287 286 286 286 285 284 284 284 284 284 285 285 284 284 284 284 284 283 285 286
295 295 294 294 294 293 293 293 293 294 292 290 291 293 290 289 290 292 293 295 296 296 295 294 293 292 292 292 291 290 290 290 289 288 288 288 288 288 288 288 288 288 289 289 289 289 290 290 290 290 290 290 291 291 294 294 294 294 294 291 288 288 288 287 287 287 286 286 286 286 285 284 283 284 284 284 284 283 283 283 283 282 282 283 283
295 295 296 294 293 293 293 294 295 294 291 292 294 293 291 290 288 291 292 294 295 295 294 293 292 292 292 291 291 290 290 289 288 288 288 288 288 288 288 287 288 288 287 288 288 288 289 288 288 288 289 289 288 291 292 293 294 294 292 289 288 288 287 287 286 286 286 285 284 283 283 283 283 283 284 286 285 283 283 281 281 280 280 280 280
297 297 298 297 295 295 295 295 294 295 293 293 293 291 292 289 289 289 290 291 292 292 293 292 292 292 291 291 290 290 289 288 288 288 288 288 287 287 287 287 288 288 288 288 288 287 288 288 288 288 289 289 287 289 292 292 293 293 291 288 287 287 286 286 285 285 285 284 283 283 282 282 282 282 285 287 287 285 281 280 279 279 279 279 279
300 298 297 296 294 294 293 294 295 294 294 294 291 291 291 290 289 289 290 290 291 292 292 291 291 291 290 290 290 290 289 288 287 288 288 288 287 287 287 287 288 288 288 287 287 287 287 287 287 288 289 288 287 287 290 292 292 292 289 287 287 286 285 285 284 283 283 283 284 283 283 281 281 281 286 287 287 284 281 280 279 279 278 277 278
299 297 297 295 294 294 294 293 293 293 293 291 290 290 291 290 289 288 289 290 290 291 291 291 291 290 290 289 289 289 289 288 288 288 288 287 287 287 286 287 287 287 287 287 287 287 286 286 286 287 287 287 286 286 289 291 291 291 288 286 286 286 285 284 283 283 283 283 282 283 283 283 282 282 287 287 287 283 281 280 280 279 278 277 277
298 296 296 296 294 292 289 291 292 294 294 290 290 291 291 291 289 289 289 290 290 291 291 290 290 290 290 289 289 288 288 288 288 287 287 287 287 287 287 287 287 287 287 287 287 287 286 286 286 286 286 287 286 286 288 291 291 290 289 286 286 285 284 283 283 282 281 281 281 281 283 284 284 285 287 288 287 284 281 280 280 278 277 277 278
300 298 292 293 293 294 295 294 295 296 292 290 290 291 291 291 289 288 289 290 290 289 290 290 290 290 289 289 289 289 288 288 288 287 287 287 287 287 287 287 287 286 286 286 286 286 286 285 285 286 286 286 286 286 287 290 291 290 289 287 285 285 285 283 282 281 281 280 280 281 281 284 285 285 287 288 287 285 283 280 279 278 279 280 279
299 297 293 293 292 292 294 294 294 293 291 290 291 292 292 290 289 289 290 288 288 290 290 290 290 289 289 288 288 288 288 288 287 287 286 286 287 287 287 287 287 287 286 286 286 286 286 285 285 285 285 285 285 286 286 288 290 290 289 288 285 285 285 284 282 281 281 280 280 281 280 283 285 286 287 287 287 286 284 279 279 282 283 283 278
297 293 290 293 292 292 293 294 293 289 289 290 290 291 291 290 289 291 288 287 289 290 290 289 289 289 288 287 287 287 287 287 287 287 287 286 286 286 286 286 286 286 286 285 285 285 285 284 284 284 284 285 285 285 286 287 288 289 289 288 287 285 286 284 283 281 280 280 280 280 281 283 285 286 287 288 288 287 284 279 282 283 283 282 279
297 298 295 291 294 294 293 292 289 288 289 289 290 291 291 289 290 286 287 288 289 289 289 289 288 288 287 287 287 287 287 287 287 287 287 286 286 286 286 286 286 286 286 285 285 285 285 284 284 283 283 284 284 285 285 286 287 288 288 288 287 286 286 283 283 282 281 280 280 280 280 283 285 286 287 288 287 286 282 283 284 284 283 280 276
296 295 293 291 293 293 293 291 288 287 288 288 290 292 290 290 288 285 287 288 288 288 288 288 288 287 287 287 287 287 287 287 286 287 286 286 285 286 285 285 286 286 286 285 285 285 285 284 284 283 282 282 283 284 285 286 286 286 288 287 287 287 286 285 282 281 281 280 281 281 282 283 284 285 286 287 287 286 284 284 284 283 280 275 275
293 293 291 290 291 292 291 290 287 285 286 287 288 289 290 290 285 286 287 288 288 288 288 287 287 287 287 287 286 286 286 286 286 287 287 287 286 286 286 285 286 286 286 285 284 285 285 284 284 283 282 282 282 283 284 285 285 286 286 286 286 286 285 284 282 280 281 282 282 282 282 283 284 285 284 284 283 284 284 283 283 282 276 275 275
293 293 291 289 289 289 289 289 289 285 285 286 287 287 287 285 285 287 287 288 288 288 288 287 287 287 287 287 286 286 286 286 286 286 286 286 286 286 286 285 286 285 285 285 285 284 284 284 284 283 282 282 282 282 283 284 285 285 285 285 285 284 284 283 281 280 281 281 282 281 281 282 283 284 284 283 283 283 283 282 281 280 277 276 275
293 293 290 290 289 290 290 289 289 287 285 285 285 286 283 284 286 287 287 288 288 288 287 287 287 287 287 287 287 285 285 286 286 286 286 285 286 286 286 285 286 286 285 285 284 284 284 284 284 283 282 281 281 281 282 283 284 284 284 284 284 283 282 281 279 279 280 280 280 281 281 279 279 280 281 278 279 281 281 281 280 279 277 275 275
291 289 288 289 289 289 290 289 289 286 285 284 284 283 281 284 286 287 287 288 288 287 287 287 287 287 287 287 287 286 286 286 286 286 286 286 286 286 286 286 287 287 287 286 285 285 286 286 286 284 282 281 281 280 282 284 284 285 284 283 282 282 281 280 280 281 278 278 277 276 275 276 277 278 279 279 279 280 280 280 279 277 276 275 274
290 289 288 288 289 290 289 288 288 285 285 285 283 282 281 284 286 287 287 288 287 287 287 287 287 287 286 286 286 286 286 286 285 285 284 283 283 286 286 286 285 285 286 286 287 286 286 286 285 285 285 284 283 283 285 285 285 285 285 285 284 283 282 279 281 283 279 275 275 275 275 275 276 277 278 278 278 278 278 277 277 277 274 274 273
286 286 285 286 287 287 287 287 285 283 284 284 283 281 281 283 286 287 287 288 287 287 287 287 286 287 286 286 286 286 285 285 285 284 283 282 281 281 284 285 285 284 285 285 286 286 286 286 286 284 282 285 285 285 285 285 285 285 285 285 285 284 283 282 284 279 274 274 274 273 273 273 274 276 276 277 277 277 277 277 276 275 274 273 273
Wind_Speed
11 13 10 11 13 13 12 11 12 12 12 13 14 14 15 15 12 14 12 10 10 9 9 10 10 9 8 10 12 10 10 9 10 10 10 9 9 10 10 10 10 11 11 10 10 8 7 7 7 6 6 6 7 8 7 7 7 7 6 5 6 4 3 1 3 4 4 1 3 3 3 2 2 1 3 4 5 5 5 6 6 6 5 5 4
6 6 7 7 9 11 11 10 10 12 13 15 16 17 16 15 15 15 11 11 12 13 12 11 11 11 11 11 9 8 9 10 10 9 11 10 11 11 11 11 12 11 11 11 10 10 9 8 8 8 7 7 7 7 6 6 7 5 4 4 3 7 6 5 5 5 0 4 3 0 2 3 3 3 1 1 4 4 5 6 6 6 6 5 4
7 10 7 9 11 11 11 11 12 15 16 16 16 15 14 14 15 13 12 13 13 13 12 13 11 10 10 7 9 7 7 8 8 9 8 10 11 11 11 11 11 11 11 10 10 10 10 9 9 8 8 8 7 7 7 8 8 8 7 7 4 1 2 3 6 6 5 3 2 5 1 3 0 1 1 1 0 1 4 5 5 6 6 5 6
13 13 12 12 12 12 11 12 13 13 13 12 13 15 14 14 15 15 14 14 13 14 14 12 12 10 9 7 6 8 7 7 8 6 7 9 11 11 10 11 11 10 10 10 9 9 10 10 8 8 8 8 9 9 9 9 8 8 8 8 6 5 4 5 5 7 5 7 3 4 4 4 3 7 4 1 0 0 3 6 4 6 6 4 5
14 13 11 9 11 13 14 14 12 13 14 14 14 15 13 18 18 17 15 15 14 14 14 11 8 7 6 4 3 5 4 4 6 9 9 10 10 11 12 9 10 10 10 11 10 10 9 9 9 9 8 8 8 9 9 10 10 9 9 9 9 9 6 4 5 6 6 8 7 4 2 3 6 3 5 2 1 1 1 2 4 6 6 6 6
14 15 15 13 14 13 12 13 13 13 14 14 14 16 16 15 14 14 13 13 14 15 15 12 12 12 10 10 10 10 11 10 13 15 11 11 12 8 6 10 10 10 10 10 11 10 10 10 10 9 9 9 9 9 9 7 8 9 10 10 10 8 8 6 6 5 7 8 6 4 6 5 6 5 8 6 0 1 1 1 4 6 5 5 4
11 10 9 10 12 11 13 14 15 15 16 14 13 15 16 14 13 15 15 13 13 13 14 13 12 12 15 15 14 13 14 13 11 8 10 10 8 9 9 8 10 11 11 11 11 11 11 10 11 10 10 9 9 9 9 10 9 10 8 9 10 8 7 9 9 8 5 6 6 4 0 1 6 8 8 5 4 2 0 1 1 3 4 5 5
13 14 13 12 13 14 16 16 15 17 16 12 12 12 15 16 14 15 13 13 12 12 13 15 14 14 14 14 13 14 14 14 10 10 8 7 9 10 9 9 10 12 12 12 12 12 12 11 11 10 10 10 9 10 11 9 8 7 9 10 8 9 10 11 9 8 10 7 6 6 3 1 3 3 3 9 6 8 4 1 0 1 2 4 6
12 11 12 13 14 15 14 14 15 15 11 12 14 14 13 13 13 12 13 12 11 12 13 15 14 14 14 13 13 13 14 12 7 7 8 8 9 10 10 10 10 12 13 13 13 13 12 12 11 11 11 11 10 10 10 9 11 10 9 9 10 9 10 10 8 9 9 9 5 4 3 3 3 3 3 3 5 5 2 5 4 1 1 3 3
8 12 13 13 14 13 14 14 12 12 12 13 12 11 11 11 12 12 13 12 12 13 14 15 16 13 13 15 17 15 12 9 7 9 9 8 11 11 10 10 10 10 12 12 13 13 12 12 12 13 13 12 10 11 11 10 10 11 12 12 11 11 9 10 11 8 9 8 9 7 7 2 2 2 3 4 1 3 7 9 7 9 9 6 4
10 11 12 13 12 13 9 11 13 10 10 10 11 11 11 12 13 15 16 13 12 13 14 16 15 15 15 16 18 17 14 12 10 10 8 8 11 12 11 11 9 11 10 11 13 12 12 12 13 13 12 11 11 11 12 12 11 11 11 11 11 13 10 10 9 8 8 9 9 8 10 10 10 8 7 6 4 3 2 5 4 7 6 6 6
8 8 10 11 9 8 6 9 10 10 8 10 11 10 11 12 12 14 14 14 12 13 14 15 14 16 15 15 16 16 13 11 13 14 12 12 12 12 10 9 10 10 10 10 11 13 12 12 12 11 11 11 12 11 11 11 11 10 9 10 10 11 10 10 9 9 9 8 9 8 8 8 8 8 7 8 9 6 7 7 7 3 1 2 1
9 10 9 8 10 11 10 11 9 9 11 13 14 13 12 12 14 15 16 15 14 13 15 16 14 14 15 16 15 13 12 13 13 13 12 12 11 11 10 11 10 10 12 12 13 14 12 12 12 12 12 12 12 11 11 11 10 10 10 11 11 12 11 11 10 11 12 11 10 8 8 8 9 6 6 8 7 6 7 6 4 3 5 5 2
9 9 8 9 10 10 11 12 11 11 12 13 13 12 12 12 14 16 18 16 15 14 15 15 15 15 14 14 14 12 12 13 13 12 12 11 10 11 12 12 12 14 13 14 13 12 12 13 13 13 13 11 11 12 12 11 11 10 11 11 12 12 10 12 12 12 11 11 9 9 9 8 8 7 7 7 7 6 7 8 7 1 2 5 1
7 8 9 10 11 10 10 10 10 11 12 12 11 12 12 13 14 16 15 14 14 15 13 15 15 15 14 14 13 11 12 12 12 11 11 12 11 11 11 11 11 12 12 12 9 11 12 12 12 12 12 12 11 11 11 11 11 10 10 12 11 10 11 11 11 12 11 11 9 9 9 8 8 7 7 8 7 9 8 8 10 8 2 2 4
6 7 8 9 9 8 8 8 9 9 10 9 10 11 11 13 13 15 17 16 15 15 14 15 15 13 14 14 14 14 11 11 11 11 12 12 12 11 12 11 11 10 10 9 9 10 11 11 12 13 12 12 12 12 12 11 11 11 11 11 12 9 11 13 12 12 13 13 12 10 8 9 8 7 8 7 8 9 8 7 10 11 11 5 2
6 7 7 8 6 6 8 8 8 8 7 9 12 12 14 14 12 14 14 12 13 14 15 14 13 13 14 14 14 13 14 15 15 15 14 11 9 10 11 11 10 10 10 8 9 9 10 11 11 12 12 12 12 12 12 12 11 11 12 12 12 10 11 12 11 11 11 11 9 11 10 8 8 7 7 6 7 6 7 8 8 11 10 10 8
7 6 6 6 6 7 7 7 8 9 11 11 12 10 10 12 13 14 13 14 14 13 13 12 13 14 14 15 15 15 15 15 14 13 11 9 10 10 10 9 12 9 8 7 7 9 10 10 11 11 11 11 12 11 12 12 12 11 12 12 12 11 11 10 11 11 10 9 9 8 7 7 6 7 8 7 7 8 7 8 8 7 8 12 9
7 8 7 7 7 8 8 9 7 6 6 7 7 6 6 7 9 11 14 15 15 12 12 13 14 12 11 13 14 14 13 13 13 12 9 10 13 12 11 12 8 8 8 9 9 9 10 10 10 11 10 11 11 12 11 11 12 11 11 11 10 11 12 12 10 10 9 9 9 9 7 7 6 7 6 6 5 6 7 7 7 5 6 5 10
8 7 7 7 8 8 8 8 7 8 7 7 6 5 8 8 7 9 8 8 8 10 11 11 11 11 11 11 11 12 12 12 12 11 11 13 13 12 12 11 12 7 9 10 9 11 10 11 10 10 10 10 11 10 10 10 10 11 10 10 9 11 12 11 9 9 9 9 9 10 10 9 7 6 6 5 6 5 6 6 7 6 5 4 7
8 7 8 8 8 8 7 7 6 4 3 2 4 6 6 5 8 7 9 9 9 9 8 10 9 10 10 11 11 10 10 10 9 10 11 12 12 11 11 11 6 10 10 9 11 11 11 11 11 11 12 11 11 11 9 9 9 10 9 9 10 11 12 9 9 9 6 7 8 10 10 9 9 8 7 5 5 5 5 5 5 6 6 4 7
7 8 8 7 7 6 5 2 1 1 2 2 2 2 3 4 4 4 5 7 6 6 6 5 5 5 6 8 7 5 6 6 8 10 12 12 12 11 11 7 10 10 9 11 11 10 9 10 11 11 11 11 11 11 9 9 9 10 10 9 7 7 10 10 9 8 6 6 6 6 4 3 5 9 8 7 7 6 6 6 5 6 6 6 3
8 8 8 7 5 4 3 3 4 4 3 2 2 2 2 2 1 2 3 5 4 6 5 5 6 5 6 6 5 6 6 7 9 9 10 10 10 7 6 9 9 9 8 10 10 9 10 10 11 11 11 11 11 10 9 10 10 11 11 10 11 12 10 7 7 8 8 8 7 7 7 7 3 6 7 7 6 6 5 7 6 4 6 5 2
7 5 4 4 3 2 2 4 5 5 5 5 4 3 3 3 3 3 4 4 3 4 5 5 6 7 7 7 8 7 7 8 9 9 9 8 7 7 7 8 9 7 9 8 8 9 9 10 11 10 10 10 11 10 9 10 11 10 7 5 4 7 11 13 13 12 10 10 11 10 9 10 9 8 6 7 6 6 7 6 5 4 5 5 3
4 5 5 3 3 5 6 6 6 5 5 5 5 5 5 5 4 5 5 5 5 4 4 5 6 7 6 7 7 7 8 9 9 8 9 9 8 8 7 9 7 8 8 7 7 7 8 9 10 10 10 11 11 12 11 9 8 8 11 11 10 8 8 9 10 12 13 13 12 13 11 11 10 9 6 6 5 7 6 7 6 5 5 5 4
6 5 4 7 7 5 5 6 6 6 6 5 5 5 6 5 7 5 6 5 5 4 4 5 4 5 6 6 5 4 6 6 6 5 5 4 4 5 5 6 6 8 6 6 7 7 8 9 9 10 11 11 10 9 9 9 9 6 5 6 10 12 12 12 12 11 12 12 13 13 12 12 13 14 13 11 9 10 7 7 7 6 6 6 6
8 8 6 3 5 8 8 6 6 6 5 6 6 6 6 6 6 5 4 4 4 4 4 4 4 4 5 4 4 4 3 3 3 3 3 3 4 5 5 6 5 6 6 7 7 8 8 9 9 9 9 7 7 8 9 10 10 10 10 10 9 9 11 11 10 9 8 8 9 9 10 11 11 9 10 11 11 9 9 9 9 8 7 7 7
5 5 6 9 8 7 7 8 6 7 6 6 6 6 6 6 7 6 5 4 4 4 4 4 4 4 4 4 3 2 1 1 1 2 2 3 3 2 3 4 4 6 7 7 8 9 9 9 9 7 6 5 5 6 9 11 11 11 10 9 9 10 8 5 4 3 5 6 5 6 9 11 11 11 11 10 11 11 8 9 7 7 8 8 8
7 9 8 8 9 9 8 7 8 5 7 7 6 6 5 5 5 5 4 6 5 5 5 5 4 5 5 4 3 3 2 2 2 2 1 2 3 3 3 2 3 5 5 5 5 6 8 7 4 5 7 8 9 8 3 1 3 5 7 9 8 7 6 6 5 4 4 6 6 5 5 6 7 8 10 10 10 9 10 10 7 8 8 8 7
11 12 11 11 11 9 8 7 6 7 8 7 7 7 8 8 8 6 6 6 6 6 6 5 6 5 4 4 4 3 3 3 3 4 4 3 2 3 4 4 4 4 4 4 4 2 1 3 5 6 6 6 7 7 12 18 15 11 10 9 8 8 8 7 7 6 5 6 7 7 7 10 11 11 12 12 11 10 8 6 12 11 10 9 9
10 9 10 10 8 8 7 6 8 8 9 9 9 8 6 7 7 7 8 7 7 6 6 6 6 5 4 4 4 3 3 3 3 2 3 3 3 3 4 4 4 4 4 4 4 4 5 5 5 4 4 5 6 7 14 15 15 12 8 7 9 8 8 8 9 10 10 8 6 5 5 9 10 10 11 14 12 11 10 9 10 10 11 15 12
9 10 10 8 9 10 10 11 10 10 9 8 8 7 6 9 8 9 8 6 7 7 7 7 5 5 4 4 4 3 3 3 2 3 3 3 3 3 4 3 3 2 2 2 3 4 4 4 4 4 5 6 5 5 7 9 10 10 9 6 5 6 7 8 8 8 7 8 8 7 5 5 7 9 8 10 11 13 12 12 13 12 10 7 7
10 12 15 14 13 14 14 13 9 10 10 11 9 7 10 10 10 9 6 8 8 8 7 7 6 6 5 5 5 5 4 4 3 2 2 2 3 3 3 3 4 3 3 3 4 3 4 3 3 4 4 4 4 4 6 7 8 9 10 8 5 6 6 5 5 6 7 7 6 7 6 6 6 11 10 9 10 10 11 13 14 12 11 10 8
13 16 17 13 10 9 11 12 13 12 12 10 9 12 12 8 7 6 9 9 8 8 8 7 7 7 7 6 6 6 5 5 3 3 2 2 1 3 2 2 2 2 3 2 2 3 2 3 3 4 4 2 3 3 6 8 9 10 11 8 4 5 5 5 5 5 5 8 9 9 9 8 7 9 8 10 10 10 10 9 9 8 7 8 8
16 16 15 13 13 11 11 9 9 10 8 5 7 9 4 4 6 8 8 9 9 8 8 8 8 7 7 7 6 6 5 5 4 4 3 3 3 2 2 2 3 3 3 3 3 3 2 1 1 1 1 1 1 3 6 8 9 10 10 8 5 5 6 7 7 8 9 9 10 10 9 9 9 10 9 11 11 11 10 9 8 7 7 6 6
15 16 17 13 12 13 14 15 12 8 7 9 11 9 8 7 5 7 7 7 8 9 9 8 9 8 8 7 7 6 5 5 4 4 4 4 3 4 4 3 2 2 2 3 2 2 3 2 2 3 3 3 2 6 8 10 11 12 13 7 7 8 7 6 6 6 7 6 4 5 6 7 7 7 10 14 11 10 10 11 10 8 6 5 4
18 16 16 13 14 14 15 11 8 11 10 11 9 8 9 7 7 7 7 7 7 9 10 10 9 8 8 7 7 7 6 6 5 5 5 4 4 4 3 3 3 3 3 3 3 3 3 4 4 5 5 4 4 6 9 11 12 14 10 5 6 5 5 7 6 5 5 5 5 5 5 5 6 5 8 13 12 10 9 11 10 9 7 6 5
17 13 13 13 11 10 9 9 11 11 13 10 9 10 10 9 9 8 8 8 9 11 9 8 9 8 7 7 7 7 7 6 6 6 6 5 3 3 3 3 4 5 4 4 3 3 3 4 4 4 4 4 3 4 8 10 12 14 10 7 6 6 5 4 4 4 3 4 3 6 5 5 6 5 9 12 13 11 10 10 11 11 10 8 6
15 15 17 15 13 14 14 11 9 11 12 9 10 11 11 11 9 9 9 10 12 12 10 10 8 7 7 7 7 7 7 7 7 6 6 6 5 5 3 3 3 4 4 3 3 4 3 2 2 3 4 3 3 2 6 7 9 11 7 5 6 6 6 5 5 5 3 3 3 4 6 5 5 6 13 14 14 10 8 10 11 10 10 10 8
17 13 13 14 12 7 6 8 11 15 14 11 11 11 12 12 11 9 10 12 14 12 8 6 7 8 8 8 8 8 7 7 7 6 5 5 5 5 5 5 4 4 4 3 4 4 5 4 4 5 5 5 6 5 7 10 11 11 8 5 4 5 6 6 5 5 5 4 5 5 7 10 12 13 15 16 15 13 8 8 8 9 10 11 8
19 16 12 8 9 13 15 16 16 16 10 10 11 12 11 10 10 11 13 16 9 7 8 8 8 9 9 9 8 8 9 7 6 6 6 5 5 6 5 5 5 4 4 4 5 4 4 4 3 3 3 3 3 5 6 11 12 14 15 11 7 6 6 6 6 5 5 6 6 6 6 10 14 15 17 17 16 15 10 8 9 9 8 6 12
15 14 9 9 9 10 13 12 11 9 11 12 12 13 13 11 10 13 16 6 8 9 9 9 10 9 9 8 8 7 8 7 6 7 7 6 4 5 6 6 5 5 6 5 4 3 2 2 3 3 2 2 2 3 4 8 13 15 15 12 8 7 8 9 7 7 7 7 7 6 7 11 16 16 19 19 20 19 16 8 8 8 10 17 12
13 8 8 10 9 11 13 15 12 8 9 11 13 14 12 11 13 16 7 8 9 10 10 9 9 9 9 9 8 9 7 7 8 8 8 7 6 5 5 5 5 5 5 4 3 3 3 3 3 2 2 2 3 3 6 7 11 13 13 10 9 8 12 8 9 8 8 7 6 8 7 13 18 18 19 20 20 20 13 8 13 13 14 16 12
13 14 12 12 13 13 13 12 7 8 10 11 14 14 13 13 17 5 8 8 9 9 10 9 9 9 9 8 8 8 8 7 8 8 7 7 7 6 5 5 5 6 5 5 4 5 5 5 5 4 3 3 3 4 5 8 10 14 14 14 14 13 14 9 8 8 7 8 8 9 9 15 17 17 18 18 19 16 9 14 15 15 16 13 8
14 14 10 9 13 14 14 12 9 10 11 12 12 16 14 16 9 10 10 11 10 10 10 10 10 9 9 8 8 8 8 8 8 8 9 8 8 7 7 5 6 6 6 6 6 6 6 6 5 5 4 3 3 3 3 7 11 13 15 14 13 13 13 12 8 5 7 7 7 10 12 15 14 14 15 16 13 14 14 15 15 15 12 7 7
11 10 9 11 12 13 12 12 10 9 10 9 10 9 14 11 8 9 10 10 12 12 11 11 10 9 10 10 10 9 8 8 8 7 8 8 9 8 7 7 6 6 6 6 6 5 5 5 5 4 5 5 4 4 5 5 7 9 10 13 12 13 13 13 9 6 7 10 12 13 13 12 11 9 8 7 6 8 14 15 15 13 7 7 7
17 17 11 9 9 9 11 12 13 10 10 9 8 7 6 6 11 10 11 12 13 13 12 11 11 10 9 10 11 9 8 8 8 7 6 7 7 8 8 8 7 7 7 6 6 6 6 5 6 6 6 6 6 5 5 5 5 6 6 8 9 9 10 9 5 5 6 6 8 7 6 8 6 10 10 7 6 8 10 9 8 8 7 7 7
16 15 12 11 12 14 14 14 14 11 9 9 8 8 6 8 9 11 11 12 12 13 13 13 12 10 10 10 10 10 10 8 8 8 8 8 7 7 8 9 9 9 9 8 8 8 8 8 7 6 6 5 4 4 6 7 7 6 6 5 6 6 6 6 6 5 5 5 6 6 7 6 5 6 6 4 5 5 6 7 7 6 6 5 5
12 10 10 13 14 14 15 15 14 9 10 10 9 8 7 10 11 11 13 13 12 12 11 11 11 10 10 9 9 10 9 9 8 7 6 6 8 7 6 5 5 6 8 10 9 8 8 8 7 8 8 7 6 6 8 6 7 8 9 8 8 7 7 6 7 10 7 5 6 6 5 6 6 7 6 6 5 5 5 6 6 5 5 5 6
10 9 10 12 12 15 14 14 10 9 10 11 10 9 8 9 11 12 13 14 13 12 11 11 11 10 10 10 9 9 8 8 8 7 7 4 3 3 4 6 5 4 4 4 7 6 7 6 5 5 6 7 8 8 8 12 11 11 10 9 6 7 8 7 10 15 8 6 6 7 6 7 7 6 7 6 6 7 6 6 6 6 6 6 7
8 8 9 11 11 10 9 9 9 10 10 10 10 9 10 10 12 12 13 13 13 12 10 10 11 11 11 11 9 9 8 8 7 8 7 7 6 4 5 1 4 5 6 6 6 3 6 7 5 5 2 2 3 6 11 12 11 11 10 10 10 11 12 13 15 10 4 6 6 6 6 6 6 6 7 7 7 7 7 7 6 6 6 7 6
Wind_Direction
227 227 221 213 211 210 208 202 202 201 201 195 192 195 196 195 190 203 199 191 189 191 194 193 198 203 211 209 211 203 204 203 209 211 210 210 205 207 205 204 203 206 208 204 206 207 206 202 201 204 191 191 193 202 201 201 200 192 192 186 186 204 228 188 193 132 126 76 26 11 22 30 46 48 142 144 149 147 144 139 140 138 151 150 161
264 264 233 223 220 214 207 204 198 196 205 200 197 197 197 194 197 202 189 192 196 194 193 197 201 202 200 207 204 205 202 204 212 212 212 209 206 209 208 206 205 205 205 205 206 205 205 203 200 201 192 198 201 202 198 198 197 196 172 188 216 185 204 187 193 126 103 178 145 351 20 30 27 57 44 113 143 152 157 144 148 145 152 158 153
237 239 226 216 217 212 205 206 204 203 203 202 203 197 196 196 203 200 195 194 199 197 194 201 199 201 200 202 200 209 218 216 218 215 210 211 212 210 210 210 207 208 206 205 206 208 209 205 206 202 198 192 196 204 198 203 197 195 185 184 200 293 224 224 183 186 177 153 142 110 184 142 310 38 29 31 24 171 153 150 153 148 156 157 155
237 231 222 214 211 212 208 207 207 206 207 204 201 201 200 203 203 200 199 198 198 200 201 201 198 196 200 194 200 204 206 216 220 219 214 218 221 214 215 211 208 210 207 207 210 210 207 208 206 204 202 195 198 200 200 205 196 198 192 194 169 191 213 225 207 192 142 137 168 196 177 151 200 221 172 243 59 299 186 163 161 158 157 153 146
233 234 231 216 213 213 209 208 204 206 207 204 201 201 203 205 204 199 198 199 200 198 197 192 184 191 187 172 170 210 252 212 215 226 216 217 221 217 217 205 210 212 207 208 209 211 209 209 206 206 204 201 201 204 203 204 199 196 190 190 190 190 202 210 221 204 191 190 149 118 88 192 212 170 129 246 86 158 203 176 171 157 162 166 156
232 230 222 214 213 215 213 211 207 209 211 209 203 205 206 208 204 201 202 202 202 199 193 185 191 189 182 192 198 203 213 208 210 213 207 211 217 221 219 209 211 212 210 210 210 209 210 208 207 204 208 206 203 209 207 199 201 198 197 194 200 198 184 192 211 224 210 206 201 196 165 177 167 186 152 214 4 236 261 270 189 174 163 162 153
241 243 232 224 223 216 214 209 208 210 213 206 205 209 209 206 200 202 204 204 202 197 188 189 194 196 197 201 204 205 213 220 218 211 210 215 211 214 215 209 209 210 213 210 210 209 211 208 206 207 208 209 206 208 209 204 203 204 194 197 200 191 180 201 201 200 218 243 231 236 199 119 142 147 198 89 186 271 237 181 175 173 171 159 161
231 231 229 224 220 213 214 210 210 213 211 202 207 210 209 209 200 202 204 205 202 195 190 193 196 199 202 207 209 213 215 222 204 211 207 204 209 215 211 212 208 210 211 211 210 208 209 209 205 207 208 210 202 210 212 207 203 206 198 200 196 192 193 204 203 192 194 218 198 223 210 117 174 143 151 175 160 170 216 249 293 103 180 187 171
226 230 228 222 222 221 218 216 215 214 206 203 207 207 208 210 209 204 206 205 203 194 195 197 201 201 203 206 213 220 220 223 200 197 203 198 210 214 213 215 211 211 212 211 209 210 206 208 204 207 209 209 202 211 214 205 204 200 197 199 201 203 201 204 193 201 200 206 163 216 162 183 177 185 151 124 143 144 204 187 177 48 144 226 194
230 229 228 226 226 225 219 218 215 211 208 208 209 205 206 205 207 206 209 204 202 199 199 200 203 203 205 209 214 219 216 219 198 206 203 195 212 214 213 214 213 212 215 214 213 211 208 206 208 209 209 208 202 208 209 208 208 206 202 201 201 203 203 201 205 198 201 199 194 177 181 133 138 177 199 164 124 192 168 191 191 171 182 212 172
233 231 230 229 226 225 220 219 219 213 208 205 206 205 206 204 205 207 210 205 200 201 199 204 203 203 210 211 214 219 214 211 211 218 206 199 213 215 212 215 212 215 212 216 215 210 210 207 210 212 210 207 205 207 209 209 208 207 207 203 204 204 202 205 208 204 195 198 200 188 195 186 188 186 195 189 163 165 117 194 180 193 181 162 210
244 240 240 235 239 236 219 225 223 218 207 205 209 206 206 206 205 210 212 207 202 201 201 207 205 209 214 215 217 220 214 211 214 219 211 212 214 216 213 213 217 216 213 216 215 211 207 210 211 211 210 209 210 210 210 210 208 206 205 204 208 209 205 200 203 205 201 202 203 199 203 196 201 193 183 181 186 194 179 179 177 140 95 227 165
242 237 233 233 230 227 217 223 218 214 208 208 207 204 204 205 204 207 212 207 206 201 202 206 208 211 214 217 220 219 216 216 219 223 216 215 216 216 208 213 214 214 216 214 217 208 206 209 206 209 212 212 211 206 211 209 206 204 206 206 208 205 204 199 202 208 200 199 205 201 199 198 206 202 177 189 197 169 168 155 196 148 158 173 173
238 238 234 226 225 228 222 220 215 212 212 210 208 204 204 206 206 208 213 206 205 202 202 204 207 212 214 217 220 216 217 217 222 223 220 218 216 217 214 214 212 216 215 216 215 206 209 212 209 212 213 211 209 210 209 208 204 205 206 208 209 210 202 199 205 206 204 207 196 193 204 202 205 191 191 181 183 159 177 170 154 110 100 170 149
232 235 231 226 225 223 223 221 218 214 213 212 208 208 206 209 208 211 216 212 207 207 203 205 207 210 212 215 217 216 217 218 222 224 222 219 218 217 219 218 217 221 219 223 210 207 212 213 213 214 213 213 210 211 211 208 207 207 208 211 211 205 202 199 203 200 202 202 198 198 199 206 207 192 182 198 181 190 180 169 155 145 70 132 172
242 233 238 239 231 227 226 228 225 221 218 215 211 209 207 212 211 212 213 212 207 206 207 206 209 209 211 211 215 215 217 221 225 224 225 220 218 216 222 220 223 225 225 219 214 209 212 213 214 217 215 214 213 213 211 210 208 209 211 210 213 201 201 200 204 200 204 198 199 196 190 208 202 191 191 194 192 191 181 174 172 168 157 182 189
243 236 238 239 242 236 227 224 224 220 217 215 215 207 207 210 210 215 218 218 213 210 209 207 209 208 210 211 213 213 215 217 221 224 224 223 222 224 225 225 225 225 225 215 217 211 215 214 215 217 215 214 214 214 212 211 208 210 211 210 212 202 202 203 200 202 204 196 195 191 197 200 202 191 192 193 193 188 184 180 188 178 176 158 172
244 252 253 250 243 239 234 230 222 214 212 216 219 214 212 212 209 211 213 213 214 208 209 208 209 211 212 212 213 214 215 220 224 227 224 220 225 229 228 229 226 225 221 218 212 213 216 215 218 217 215 213 215 214 213 214 210 213 212 212 210 199 203 203 202 200 199 189 192 186 191 201 189 183 196 190 183 186 180 186 196 206 177 172 173
260 248 245 242 232 229 223 224 230 232 229 227 231 225 228 225 219 214 215 214 211 206 205 210 209 211 213 214 213 215 218 221 223 224 218 218 224 225 224 228 229 220 214 215 211 213 214 215 216 219 214 215 214 215 213 214 211 214 213 213 207 202 202 203 200 195 194 182 181 184 184 194 174 186 177 173 180 174 182 177 184 175 202 180 166
248 251 248 240 236 229 223 223 226 222 218 220 216 206 217 220 215 222 228 224 218 213 209 213 212 212 216 217 218 218 217 219 220 217 218 221 225 224 225 226 225 212 218 216 214 216 213 214 213 216 217 217 215 215 211 214 211 215 210 212 208 201 205 206 199 195 185 184 178 186 186 185 171 163 168 169 170 177 165 166 167 172 175 163 152
234 237 238 234 236 242 240 237 241 259 257 238 206 208 214 204 215 217 216 220 217 218 210 216 212 216 218 218 218 216 219 217 218 216 219 223 225 223 222 223 210 217 215 214 216 217 215 214 213 214 217 218 218 218 213 211 212 213 212 212 203 200 206 207 187 187 177 174 183 195 193 182 158 164 170 163 163 160 151 150 153 149 157 167 147
228 232 231 231 238 246 260 281 299 283 262 221 218 222 235 223 237 228 226 226 218 221 212 223 226 220 223 228 228 221 217 212 213 216 219 221 223 220 220 209 212 220 207 215 217 217 214 212 214 216 217 218 217 217 212 209 211 213 211 200 203 211 206 192 182 178 169 170 172 174 171 159 174 162 155 167 165 157 158 149 164 161 168 177 179
233 228 224 223 220 226 229 233 240 236 247 247 259 227 223 232 241 244 216 240 218 220 202 195 203 203 215 217 214 218 211 211 214 218 222 222 225 222 206 211 215 218 210 213 216 214 213 211 214 216 214 215 213 211 207 205 208 210 211 206 194 189 190 185 190 182 175 169 165 176 177 161 166 157 163 165 164 165 156 161 167 164 163 166 154
244 238 246 241 252 280 279 256 252 258 254 251 251 259 256 245 233 220 223 224 216 212 204 199 204 208 206 203 209 210 206 212 217 220 222 222 218 214 206 213 214 212 212 216 214 213 211 210 215 214 213 210 208 205 199 199 202 198 194 200 213 210 194 185 185 184 178 173 182 181 177 166 163 167 168 165 170 158 158 156 158 171 153 150 137
242 237 233 258 263 244 233 232 238 242 245 244 242 238 231 239 229 229 227 213 211 203 192 208 201 206 210 209 215 207 208 211 216 214 220 217 217 215 211 215 212 216 215 208 215 212 210 212 214 212 209 208 204 200 196 196 202 198 192 187 189 200 210 206 197 192 183 179 181 186 175 163 161 161 167 171 171 168 162 152 162 163 150 137 105
226 243 259 236 231 245 250 240 238 236 232 233 234 232 233 232 233 223 225 224 225 206 210 204 197 199 215 217 222 216 224 228 230 238 243 249 247 236 229 230 216 221 214 212 207 207 208 212 212 210 206 205 202 199 200 197 188 185 210 219 202 197 205 208 207 198 187 184 184 184 172 173 173 179 181 174 172 171 157 156 156 162 147 130 116
216 219 235 275 274 246 237 242 236 235 229 228 224 229 231 234 245 240 230 223 223 197 201 196 196 204 209 218 213 211 206 205 206 211 203 206 215 218 219 225 216 213 210 208 207 207 211 210 207 204 205 201 201 197 197 197 198 197 198 201 212 222 214 210 212 201 175 179 183 175 167 167 169 169 166 174 173 167 167 168 164 158 147 133 124
253 256 242 231 236 247 245 241 239 236 229 231 226 223 220 218 231 231 221 215 207 185 195 198 193 206 211 210 209 207 200 205 199 191 189 194 184 187 212 219 192 200 202 205 205 206 208 202 205 210 217 220 214 204 201 198 193 189 190 205 209 207 207 198 185 169 144 151 158 156 161 172 180 182 178 174 169 169 163 156 155 148 146 137 134
231 233 230 230 233 233 237 235 232 228 227 227 226 230 233 239 235 228 208 211 182 177 182 183 184 198 205 189 188 199 197 221 226 223 217 199 194 197 194 182 190 203 205 212 216 210 199 207 234 224 210 194 191 190 182 190 180 184 187 194 196 192 184 172 159 149 150 142 147 163 177 178 175 171 171 168 171 162 159 154 159 153 146 140 135
224 225 224 222 223 231 233 230 230 220 222 219 221 221 215 214 220 215 208 204 159 186 176 182 189 194 179 175 174 177 186 194 214 221 224 224 221 213 211 212 203 200 202 195 178 172 219 223 200 205 199 188 192 191 191 188 190 191 192 191 176 174 172 167 162 148 148 160 167 177 173 164 160 156 155 157 160 164 179 177 162 158 153 148 150
229 238 235 227 227 232 243 236 228 219 215 210 214 215 209 216 216 207 206 195 182 179 185 183 197 184 170 165 161 169 164 195 205 211 202 198 211 196 199 204 206 195 195 194 185 192 192 185 182 181 208 222 214 210 203 195 198 195 184 180 179 176 172 167 169 170 176 173 162 153 153 157 154 156 159 160 165 165 163 150 166 171 169 159 153
236 241 250 236 220 228 228 228 225 220 215 208 212 209 195 217 208 208 201 178 182 184 186 192 190 179 179 186 190 179 186 200 177 203 201 198 186 190 196 192 173 173 192 159 184 202 195 195 190 189 194 206 229 262 227 203 192 181 170 168 164 166 176 182 179 176 168 160 159 154 150 159 166 164 162 163 164 166 162 158 164 168 169 166 162
234 247 246 234 220 215 217 219 220 216 211 216 199 182 209 210 202 202 165 182 189 188 188 191 190 189 197 198 203 212 217 208 204 182 178 169 178 183 185 175 200 199 141 162 204 188 207 197 187 198 213 219 225 211 200 190 178 168 162 157 169 169 169 171 167 159 158 155 153 154 155 171 176 166 162 168 163 160 160 160 162 159 160 155 137
233 239 241 237 227 225 224 219 211 210 209 207 184 195 211 201 184 163 177 187 187 194 192 194 187 192 191 192 193 195 200 202 188 171 155 157 162 204 185 156 131 123 158 180 165 188 182 180 194 201 214 210 203 193 176 174 171 165 163 157 151 149 148 150 152 143 142 163 168 170 173 175 176 174 170 168 167 160 155 151 154 159 158 149 135
230 238 239 232 225 219 222 226 229 223 214 174 200 218 184 159 175 179 185 181 191 191 200 195 195 191 186 189 185 183 185 187 183 175 171 180 186 165 149 151 148 154 161 177 177 184 190 173 173 153 153 182 186 161 170 168 170 164 151 133 131 134 145 155 164 172 174 171 180 184 178 177 175 179 179 172 166 162 154 154 152 151 154 155 149
227 229 235 227 221 219 215 217 216 204 199 193 205 189 172 191 170 184 182 192 190 194 201 194 199 192 189 183 175 178 178 173 172 172 179 188 179 177 181 164 129 114 115 119 115 129 152 148 137 136 147 189 173 175 175 172 165 160 150 147 153 159 165 168 170 173 177 181 161 164 170 173 182 187 183 174 171 157 152 149 150 149 142 132 123
227 225 235 228 220 221 219 213 202 196 190 203 198 174 178 160 173 186 181 190 195 207 207 198 196 188 184 177 173 173 174 171 170 172 183 183 180 177 163 153 138 149 147 151 156 151 155 157 165 170 175 190 181 186 180 175 170 163 152 155 155 152 161 169 171 162 163 160 168 167 162 167 172 188 182 177 165 147 150 153 154 155 148 142 137
232 230 234 234 226 225 227 208 209 199 202 196 179 173 170 173 182 177 177 193 198 216 210 198 194 179 174 172 172 169 169 170 170 180 185 186 172 154 160 167 161 163 166 168 158 136 149 160 168 184 185 182 178 189 185 179 174 169 161 155 158 155 151 145 128 125 131 145 160 161 152 156 169 170 176 178 168 158 160 162 157 152 157 161 157
229 219 223 224 217 210 212 205 205 208 212 187 175 170 168 184 181 180 186 193 210 213 196 194 187 168 164 167 166 167 169 171 177 186 180 171 171 169 156 153 151 152 156 151 149 138 124 113 130 141 135 133 119 160 183 181 175 163 148 148 150 150 148 147 148 146 129 130 126 150 154 147 156 163 179 181 177 172 168 168 163 157 165 179 178
236 231 227 219 209 197 203 197 203 217 207 175 169 173 183 183 188 169 185 208 216 207 184 165 159 164 168 167 167 169 172 174 182 175 166 166 153 146 158 159 158 153 151 155 153 152 150 157 153 147 156 158 155 163 173 173 169 156 124 123 117 143 158 155 153 151 150 147 152 162 170 170 168 174 185 185 181 178 173 167 162 171 170 190 168
233 230 217 207 201 195 201 202 207 210 182 172 170 177 188 193 176 176 202 215 197 153 160 164 161 166 172 172 171 173 171 177 173 166 161 157 165 160 157 159 156 154 149 153 160 159 154 160 165 151 145 151 156 156 173 169 165 157 152 147 155 160 152 152 155 155 172 173 178 183 182 186 179 175 181 187 183 184 179 173 179 185 192 148 145
233 228 201 208 203 208 217 222 223 198 179 172 173 180 193 185 179 199 213 171 145 157 153 162 168 171 171 169 169 168 169 164 156 150 154 167 172 162 164 162 158 158 159 157 152 144 123 92 59 60 63 72 84 137 153 174 170 166 166 154 157 166 158 155 162 177 178 188 188 181 181 188 187 183 183 186 187 187 180 171 184 173 147 149 159
235 236 206 192 201 211 216 219 213 189 177 181 175 185 190 189 194 212 170 144 151 151 156 161 166 167 169 168 167 163 161 157 160 166 164 164 160 158 157 153 151 146 141 135 129 116 109 105 94 87 107 117 131 146 162 169 173 167 167 155 155 156 159 161 168 179 186 186 179 186 185 189 191 190 192 190 189 184 174 174 174 164 153 153 148
233 225 211 190 205 209 216 223 204 189 185 183 181 189 194 189 210 165 137 142 148 151 151 158 166 167 163 166 163 161 159 162 164 161 159 154 156 155 150 155 151 147 146 145 146 146 145 151 156 153 151 146 151 149 160 162 167 167 161 163 162 162 163 175 176 186 179 179 181 189 186 191 195 194 194 193 192 183 173 172 173 165 155 146 142
231 231 215 192 207 213 217 218 203 192 193 193 194 190 188 199 195 138 151 153 151 151 154 163 166 166 165 161 158 163 164 164 164 160 156 157 153 155 153 160 155 155 158 160 167 170 172 170 165 167 159 149 150 151 160 170 170 170 170 169 164 162 168 163 177 182 172 182 182 173 176 189 194 191 192 193 191 184 171 174 174 165 144 144 156
239 240 217 207 211 217 212 210 206 199 198 200 204 189 186 200 139 152 150 154 151 154 160 165 166 164 164 159 158 160 162 162 161 163 162 161 160 164 162 162 165 168 167 164 169 172 170 168 173 165 167 167 170 171 174 175 174 171 173 171 164 170 173 179 177 165 166 165 172 173 175 179 184 183 181 188 185 181 178 176 176 162 148 167 171
225 226 210 207 201 205 208 206 208 201 194 196 195 208 188 134 159 156 158 157 160 160 160 162 166 165 160 164 162 165 161 160 163 161 162 163 163 163 161 166 172 169 166 166 167 171 173 176 183 180 173 172 177 180 177 175 175 172 174 174 173 177 173 166 147 143 152 162 161 154 157 166 171 177 179 182 174 157 167 175 178 172 173 177 178
222 221 202 202 197 201 205 204 209 194 188 183 185 187 164 152 151 157 155 158 161 165 164 167 166 165 167 168 166 159 160 161 169 167 163 165 171 170 169 174 178 175 169 172 171 179 184 183 185 179 173 168 174 181 184 180 179 176 170 169 171 163 164 164 156 151 140 135 138 144 155 162 158 166 171 170 168 166 168 173 182 177 171 173 176
219 217 194 200 201 206 209 201 204 180 177 177 182 171 162 159 159 157 160 161 165 162 161 161 163 161 167 168 164 166 166 164 165 169 168 167 168 172 173 185 205 186 178 171 177 189 191 192 181 175 170 178 189 195 205 185 177 173 171 169 173 176 166 165 160 143 122 114 118 130 147 160 173 174 173 180 177 174 171 173 174 165 157 174 181
222 213 209 211 210 205 199 199 194 171 175 176 174 169 165 161 157 161 164 164 161 160 161 167 168 168 165 164 163 166 164 162 164 160 151 116 47 142 179 175 187 220 209 209 179 183 188 173 176 188 179 175 189 209 176 173 179 181 179 172 158 152 155 147 154 153 140 138 156 161 172 170 172 176 181 183 181 187 182 178 182 180 176 184 193
203 190 210 212 214 208 205 199 184 171 176 175 170 167 163 165 165 167 169 165 160 162 167 167 169 175 174 168 163 161 162 161 160 156 151 148 132 57 41 103 173 173 180 177 186 166 159 172 170 174 205 59 102 130 162 174 174 179 178 175 162 159 151 155 155 136 131 154 159 169 173 175 179 178 187 187 184 186 195 191 189 187 195 198 199